Location: Tel Aviv
(32.0670°N, 34.7670°E)
Time: 11:27:57
(UTC+03:00)

Transit 2A - Pass Details

Date: 26 January 2022
Orbit: 598 x 960 km, 66.7° (Epoch: 20 May)

Event Time Altitude Azimuth Distance (km) Brightness Sun altitude
Rises 21:29:19 0° 313° (NW) 3,467 - -54.9°
Reaches altitude 10° 21:32:57 10° 292° (WNW) 2,450 - -55.7°
Maximum altitude 21:36:02 15° 258° (WSW) 2,042 - -56.3°
Drops below altitude 10° 21:38:58 10° 224° (SW) 2,305 - -56.9°
Sets 21:42:14 0° 201° (SSW) 3,144 - -57.6°
